Location: Cotdoussan
(43.0366°N, 0.0068°E)
Time: 22:13:24
(UTC+00:00)

MOS 1 - Pass Details

Date: 08 August 2025
Orbit: 877 x 889 km, 98.8° (Epoch: 21 April)

Event Time Altitude Azimuth Distance (km) Brightness Sun altitude
Exits shadow 20:26:34 - 164° (SSE) 2,572 6.2 -12.7°
Reaches altitude 10° 20:26:42 10° 164° (SSE) 2,524 6.2 -12.7°
Maximum altitude 20:32:20 90° 68° (ENE) 886 4.3 -13.5°
Drops below altitude 10° 20:38:01 10° 346° (NNW) 2,549 7.5 -14.3°
Sets 20:40:25 0° 347° (NNW) 3,493 8.3 -14.7°
